Location: Dumbr?vi?a
(45.8833°N, 22.7000°E)
Time: 07:25:11
(UTC+00:00)

Ariane Rocket - Pass Details

Date: 03 March 2021
Orbit: 759 x 771 km, 98.7° (Epoch: 10 April)

Event Time Altitude Azimuth Distance (km) Brightness Sun altitude
Exits shadow 17:01:53 10° 101° (E) 2,348 4.9 -8.3°
Reaches altitude 10° 17:02:00 10° 100° (E) 2,315 4.8 -8.3°
Maximum altitude 17:05:19 18° 59° (ENE) 1,836 4.5 -8.9°
Drops below altitude 10° 17:08:39 10° 18° (NNE) 2,322 5.3 -9.5°
Sets 17:11:39 0° 360° (N) 3,252 6.3 -10.0°
